Location: Cahas Mountain Overlook
(37.0833°N, 80.1000°W)
Time: 19:07:56
(UTC-04:00)

SR - Pass Details

Date: 12 February 2026
Orbit: 572 x 849 km, 66.7° (Epoch: 12 March)

Event Time Altitude Azimuth Distance (km) Brightness Sun altitude
Rises 13:30:09 0° 352° (N) 3,056 ? 37.8°
Reaches altitude 10° 13:34:00 10° 23° (NNE) 2,208 ? 37.5°
Maximum altitude 13:36:00 12° 46° (NE) 2,094 ? 37.4°
Drops below altitude 10° 13:38:03 10° 70° (ENE) 2,278 ? 37.3°
Sets 13:42:09 0° 100° (E) 3,269 ? 37.0°
